Tiempo cada hora Barnasie

Hoy, 25 Junio, Viernes

Tiempo Temperatura Precipitaciones Viento Presión Humedad
00:00 +19°C° 0.3 mm 1 mps 706 mmHg 95%
01:00 +19°C° 0.3 mm 1 mps 706 mmHg 95%
02:00 +18°C° 0.1 mm 1 mps 706 mmHg 95%
03:00 +18°C° 0.1 mm 1 mps 705 mmHg 96%
04:00 +18°C° 0.1 mm 1 mps 705 mmHg 96%
05:00 +19°C° 0 mm 1 mps 705 mmHg 92%
06:00 +21°C° 0 mm 1 mps 706 mmHg 89%
07:00 +22°C° 0 mm 1 mps 706 mmHg 85%
08:00 +23°C° 0.1 mm 2 mps 706 mmHg 81%
09:00 +23°C° 0.1 mm 2 mps 706 mmHg 77%
10:00 +24°C° 0.1 mm 2 mps 707 mmHg 73%
11:00 +22°C° 0.8 mm 3 mps 707 mmHg 77%
12:00 +21°C° 0.8 mm 3 mps 707 mmHg 80%
13:00 +20°C° 0.8 mm 3 mps 707 mmHg 83%
14:00 +20°C° 0.3 mm 3 mps 707 mmHg 86%
15:00 +19°C° 0.3 mm 2 mps 707 mmHg 88%
16:00 +18°C° 0.3 mm 2 mps 706 mmHg 90%
17:00 +18°C° 0.1 mm 2 mps 707 mmHg 92%
18:00 +18°C° 0.1 mm 1 mps 707 mmHg 93%
19:00 +18°C° 0.1 mm 1 mps 707 mmHg 94%
20:00 +16°C° 0 mm 1 mps 707 mmHg 94%
21:00 +16°C° 0 mm 1 mps 707 mmHg 95%
22:00 +15°C° 0 mm 1 mps 707 mmHg 96%
23:00 +15°C° 0 mm 1 mps 707 mmHg 96%

Mañana, 26 Junio, Sábado

Tiempo Temperatura Precipitaciones Viento Presión Humedad
00:00 +14°C° 0 mm 1 mps 707 mmHg 96%
01:00 +13°C° 0 mm 0 mps 707 mmHg 96%
02:00 +13°C° 0 mm 0 mps 707 mmHg 96%
03:00 +13°C° 0 mm 1 mps 707 mmHg 96%
04:00 +13°C° 0 mm 1 mps 707 mmHg 97%
05:00 +13°C° 0.1 mm 0 mps 708 mmHg 96%
06:00 +14°C° 0.1 mm 0 mps 708 mmHg 95%
07:00 +14°C° 0.1 mm 0 mps 709 mmHg 94%
08:00 +16°C° 0 mm 0 mps 709 mmHg 86%
09:00 +19°C° 0 mm 1 mps 709 mmHg 78%
10:00 +21°C° 0 mm 1 mps 709 mmHg 70%
11:00 +22°C° 0.3 mm 1 mps 709 mmHg 69%
12:00 +21°C° 0.3 mm 2 mps 708 mmHg 67%
13:00 +23°C° 0.3 mm 2 mps 708 mmHg 65%
14:00 +21°C° 1 mm 2 mps 708 mmHg 70%
15:00 +21°C° 1 mm 2 mps 708 mmHg 75%
16:00 +20°C° 1 mm 2 mps 708 mmHg 80%
17:00 +19°C° 0.7 mm 2 mps 708 mmHg 84%
18:00 +19°C° 0.7 mm 1 mps 708 mmHg 88%
19:00 +18°C° 0.7 mm 1 mps 708 mmHg 93%
20:00 +16°C° 0 mm 1 mps 708 mmHg 94%
21:00 +15°C° 0 mm 1 mps 708 mmHg 94%
22:00 +14°C° 0 mm 1 mps 708 mmHg 95%
23:00 +14°C° 0 mm 1 mps 708 mmHg 96%

Pasado mañana, 27 Junio, Domingo

Tiempo Temperatura Precipitaciones Viento Presión Humedad
00:00 +14°C° 0 mm 1 mps 708 mmHg 96%
01:00 +13°C° 0 mm 0 mps 708 mmHg 96%
02:00 +12°C° 0 mm 0 mps 708 mmHg 96%
03:00 +12°C° 0 mm 0 mps 708 mmHg 96%
04:00 +12°C° 0 mm 0 mps 708 mmHg 96%
05:00 +14°C° 0 mm 0 mps 708 mmHg 92%
06:00 +15°C° 0 mm 0 mps 709 mmHg 89%
07:00 +17°C° 0 mm 0 mps 709 mmHg 85%
08:00 +20°C° 0 mm 1 mps 709 mmHg 77%
09:00 +22°C° 0 mm 1 mps 709 mmHg 69%
10:00 +23°C° 0 mm 1 mps 709 mmHg 61%
11:00 +23°C° 0.1 mm 2 mps 709 mmHg 61%
12:00 +23°C° 0.1 mm 2 mps 709 mmHg 61%
13:00 +23°C° 0.1 mm 2 mps 709 mmHg 62%
14:00 +23°C° 0.3 mm 2 mps 709 mmHg 62%
15:00 +23°C° 0.3 mm 2 mps 709 mmHg 63%
16:00 +23°C° 0.3 mm 1 mps 709 mmHg 64%
17:00 +22°C° 0.2 mm 1 mps 709 mmHg 71%
18:00 +21°C° 0.2 mm 1 mps 709 mmHg 77%
19:00 +19°C° 0.2 mm 1 mps 708 mmHg 84%
20:00 +18°C° 0 mm 1 mps 708 mmHg 86%
21:00 +15°C° 0 mm 0 mps 709 mmHg 88%
22:00 +14°C° 0 mm 0 mps 709 mmHg 90%
23:00 +14°C° 0 mm 0 mps 709 mmHg 91%

28 Junio, Lunes

Tiempo Temperatura Precipitaciones Viento Presión Humedad
00:00 +13°C° 0 mm 0 mps 709 mmHg 91%
01:00 +14°C° 0 mm 1 mps 709 mmHg 91%
02:00 +14°C° 0 mm 1 mps 708 mmHg 91%
03:00 +14°C° 0 mm 1 mps 708 mmHg 91%
04:00 +14°C° 0 mm 1 mps 708 mmHg 92%
05:00 +15°C° 0 mm 0 mps 708 mmHg 86%
06:00 +16°C° 0 mm 0 mps 709 mmHg 81%
07:00 +18°C° 0 mm 0 mps 709 mmHg 76%
08:00 +20°C° 0 mm 0 mps 709 mmHg 69%
09:00 +21°C° 0 mm 0 mps 709 mmHg 62%
10:00 +25°C° 0 mm 1 mps 709 mmHg 55%
11:00 +25°C° 0.1 mm 1 mps 709 mmHg 53%
12:00 +26°C° 0.1 mm 1 mps 709 mmHg 51%
13:00 +27°C° 0.1 mm 2 mps 709 mmHg 48%
14:00 +26°C° 0.1 mm 2 mps 709 mmHg 52%
15:00 +26°C° 0.1 mm 2 mps 709 mmHg 55%
16:00 +25°C° 0.1 mm 2 mps 709 mmHg 59%
17:00 +24°C° 0.2 mm 2 mps 708 mmHg 67%
18:00 +22°C° 0.2 mm 1 mps 708 mmHg 75%
19:00 +20°C° 0.2 mm 1 mps 708 mmHg 83%
20:00 +19°C° 0.1 mm 1 mps 708 mmHg 86%
21:00 +18°C° 0.1 mm 1 mps 708 mmHg 88%
22:00 +16°C° 0.1 mm 1 mps 708 mmHg 90%
23:00 +16°C° 0 mm 1 mps 707 mmHg 91%

29 Junio, Martes

Tiempo Temperatura Precipitaciones Viento Presión Humedad
00:00 +16°C° 0 mm 1 mps 707 mmHg 91%
01:00 +15°C° 0 mm 1 mps 707 mmHg 92%
02:00 +15°C° 0 mm 1 mps 707 mmHg 92%
03:00 +16°C° 0 mm 1 mps 707 mmHg 92%
04:00 +16°C° 0 mm 1 mps 706 mmHg 92%
05:00 +18°C° 0 mm 1 mps 707 mmHg 87%
06:00 +20°C° 0 mm 1 mps 707 mmHg 83%
07:00 +22°C° 0 mm 1 mps 707 mmHg 78%
08:00 +24°C° 0 mm 1 mps 707 mmHg 69%
09:00 +26°C° 0 mm 1 mps 707 mmHg 61%
10:00 +28°C° 0 mm 1 mps 707 mmHg 52%
11:00 +28°C° 0 mm 1 mps 707 mmHg 50%
12:00 +29°C° 0 mm 2 mps 706 mmHg 48%
13:00 +30°C° 0 mm 2 mps 706 mmHg 46%
14:00 +29°C° 0.1 mm 2 mps 706 mmHg 51%
15:00 +28°C° 0.1 mm 2 mps 706 mmHg 57%
16:00 +27°C° 0.1 mm 2 mps 706 mmHg 62%
17:00 +26°C° 0.5 mm 1 mps 706 mmHg 69%
18:00 +24°C° 0.5 mm 1 mps 705 mmHg 77%
19:00 +23°C° 0.5 mm 1 mps 705 mmHg 84%
20:00 +22°C° 0 mm 1 mps 705 mmHg 86%
21:00 +21°C° 0 mm 1 mps 705 mmHg 88%
22:00 +20°C° 0 mm 1 mps 705 mmHg 90%
23:00 +20°C° 0 mm 1 mps 705 mmHg 90%

30 Junio, Miércoles

Tiempo Temperatura Precipitaciones Viento Presión Humedad
00:00 +19°C° 0 mm 1 mps 704 mmHg 89%
01:00 +19°C° 0 mm 1 mps 704 mmHg 89%
02:00 +19°C° 0 mm 1 mps 704 mmHg 89%
03:00 +19°C° 0 mm 1 mps 704 mmHg 89%
04:00 +18°C° 0 mm 1 mps 703 mmHg 88%
05:00 +20°C° 0 mm 1 mps 704 mmHg 82%
06:00 +22°C° 0 mm 1 mps 704 mmHg 75%
07:00 +24°C° 0 mm 1 mps 704 mmHg 69%
08:00 +26°C° 0 mm 1 mps 704 mmHg 61%
09:00 +28°C° 0 mm 1 mps 704 mmHg 54%
10:00 +30°C° 0 mm 1 mps 704 mmHg 47%
11:00 +29°C° 0.7 mm 2 mps 703 mmHg 53%
12:00 +28°C° 0.7 mm 2 mps 703 mmHg 60%
13:00 +27°C° 0.7 mm 3 mps 702 mmHg 67%
14:00 +25°C° 3.9 mm 3 mps 703 mmHg 75%
15:00 +23°C° 3.9 mm 2 mps 703 mmHg 83%
16:00 +21°C° 3.9 mm 1 mps 703 mmHg 90%
17:00 +21°C° 2 mm 1 mps 704 mmHg 92%
18:00 +20°C° 2 mm 1 mps 704 mmHg 93%
19:00 +20°C° 2 mm 1 mps 704 mmHg 94%
20:00 +19°C° 1.3 mm 1 mps 704 mmHg 95%
21:00 +19°C° 1.3 mm 1 mps 704 mmHg 96%
22:00 +18°C° 1.3 mm 1 mps 704 mmHg 97%
23:00 +18°C° 0 mm 1 mps 704 mmHg 97%
Mostrar más

Necesitamos Su Consentimiento

Meteoprog y nuestros Proveedores de Servicios pueden almacenar y acceder a sus datos personales como cookies, identificadores de dispositivo u otras tecnologías similares de su dispositivo y procesar dichos datos para personalizar contenido y anuncios, además de ofrecer funciones de redes sociales y analizar el tráfico.

  • Almacenar y/o acceder a información en su dispositivo

    Se puede almacenar o acceder a cookies, identificadores de dispositivo u otra información de su dispositivo para los fines anteriormente indicados.

  • Anuncios y contenido personalizados, medición de anuncios y contenido, percepciones del público, y desarrollo de productos

    Los anuncios y el contenido pueden personalizarse en base a su perfil. Se pueden añadir más datos para personalizar mejor los anuncios y contenidos. Se puede medir el rendimiento de los anuncios y contenidos. Se puede obtener la percepción sobre el público que ha visto los anuncios y contenidos. Dichos datos pueden usarse para desarrollar o mejorar la experiencia del usuario, sistemas y software.

Al hacer clic en ‘Estoy De Acuerdo’ usted permitirá el uso de las cookies, identificadores de dispositivo, balizas web u otras tecnologías similares indicadas. Su configuración puede cambiarse desde el navegador de su dispositivo.

Para ciertos fines, los intereses legítimos pueden ser considerados por encima del consentimiento. Puede leer más sobre ello en nuestra Política de Privacidad y Cookies.